Regional Weather Roundup
Issued by NWS Grand Forks, ND

Home | Current Version | Previous Version | Graphics & Text | Print | Product List | Glossary On
Versions: 1 2 3 4 5 6 7 8 9 10 11 12 13 14 15 16 17 18 19 20 21 22 23 24 25 26 27 28 29 30 31 32 33 34 35 36 37 38 39 40 41 42 43 44 45 46 47 48 49 50
000
ASUS43 KFGF 261431
RWRFGF
PRAIRIE TO PINES  WEATHER ROUNDUP
NATIONAL WEATHER SERVICE EASTERN NORTH DAKOTA/GRAND FORKS ND
900 AM CDT WED APR 26 2017

 **SATELLITE DATA USED TO AUGMENT SKY COVER AT AUTOMATED STATIONS**
 *****  WEATHER ACROSS EASTERN NORTH DAKOTA  *****

CITY           SKY/WX    TMP DP  RH WIND       PRES   REMARKS
GRAND FORKS    CLOUDY    31  25  78 NE18G28   29.84S WCI  19
GRAND FRKS AFB CLOUDY    30  23  74 NE15      29.85S WCI  19
DEVILS LAKE    CLOUDY    28  22  78 N20       29.88S WCI  15
FARGO          LGT SNOW  29  27  92 N17G25    29.77S VSB 1   WCI  17
WAHPETON ARPT  CLOUDY    30  28  93 N15       29.72S WCI  19
$$

 ***** WEATHER ACROSS CENTRAL AND WESTERN NORTH DAKOTA  *****

CITY           SKY/WX    TMP DP  RH WIND       PRES   REMARKS
BISMARCK       CLOUDY    32  24  72 N14       29.89S WCI  22
MINOT          FAIR      32  23  69 N14       29.93S WCI  22
JAMESTOWN      CLOUDY    28  25  88 N18       29.81R WCI  15
MINOT AFB      FAIR      32  21  64 N10       29.94S WCI  24
GARRISON         N/A     30  22  72 N8        29.91S WCI  22
WILLISTON      FAIR      31  21  66 NE7       29.96S WCI  24
DICKINSON      CLOUDY    31  23  72 NE9       29.88S WCI  23
HETTINGER      CLOUDY    32  22  66 N13       29.89S WCI  22
$$

 *****  OTHER AIRPORT OBSERVATIONS IN OUR AREA  *****

CITY           SKY/WX    TMP DP  RH WIND       PRES   REMARKS
WALHALLA       NOT AVBL
GRAFTON AIRPOR CLOUDY    30  25  80 NE17      29.89S WCI  18
VALLEY CITY AR LGT RAIN  27  27 100 N21       29.80S WCI  13
CANDO          NOT AVBL
CAVALIER APRT  CLOUDY    28  21  74 N14G22    29.90S WCI  17
GWINNER        FOG       28  28 100 MISG      29.76S VSB 1/2
SHEYENNE NWR     N/A     28  26  94 N14       29.95S WCI  17
ROLLA          CLOUDY    28  23  80 N20G26    29.91S WCI  15
 ***** THE ABOVE OBSERVATIONS ARE NON NWS ARE NOT QUALITY
       CONTROLLED AND MAY MIS-REPORT RAIN FOR SNOW...
$$

  *****  WEATHER ACROSS NORTHERN MINNESOTA  *****

CITY           SKY/WX    TMP DP  RH WIND       PRES   REMARKS
FLAG ISLAND    CLOUDY    27  19  74 NE22G28   29.87F WCI  12
WARROAD        CLOUDY    27  23  86 NE23G30   29.85S WCI  12
ROSEAU         CLOUDY    28  21  74 NE17G23   29.85S WCI  16
HALLOCK        CLOUDY    30  23  74 NE12G24   29.88S WCI  21
THF RVR FALLS  LGT SNOW  27  23  86 NE21      29.81R VSB 3/4 WCI  13
BAUDETTE       LGT SNOW  25  20  81 NE15G22   29.81S WCI  13
WASKISH        LGT SNOW  25  21  86 NE12G23   29.77S WCI  14
CROOKSTON      LGT SNOW  28  27  93 NE14G20   29.83R WCI  17
STEPHEN NDAWN    N/A     28  23  80 NE16        N/A  WCI  17
GREENBUSH NDAW   N/A     27  23  86 NE17        N/A  WCI  14
$$
  *****  WEATHER ACROSS CENTRAL AND WEST MINNESOTA  *****

CITY           SKY/WX    TMP DP  RH WIND       PRES   REMARKS
FOSSTON        FLURRIES  25  21  86 N17       29.76R WCI  11
BEMIDJI        LGT SNOW  24  22  90 N12       29.72S WCI  13
PARK RAPIDS    LGT SNOW  27  20  75 N13       29.67R WCI  16
ELBOW LAKE     FLURRIES  32  31  96 N12       29.67S WCI  23
WADENA         MIX PCPN  27  27 100 N6        29.65S WCI  20
DETROIT LAKES  LGT SNOW  28  27  93 CALM      29.71S
MOORHEAD       LGT SNOW  28  27  93 N7        29.77R VSB 1   WCI  21
FERGUS FALLS   LGT SNOW  30  30 100 N9        29.70R WCI  22
MORRIS MN      CLOUDY    34  32  93 N14       29.65S FOG     WCI  24
STAPLES        MIX PCPN  28  28 100 CALM      29.63S
$$
  *****  WEATHER ELSEWHERE ACROSS MINNESOTA  *****

CITY           SKY/WX    TMP DP  RH WIND       PRES   REMARKS
DULUTH         SLEET     32  30  92 E13       29.58F VSB 3/4 WCI  22
INTRNTL FALLS  LGT SNOW  25  19  78 NE17G24   29.78F VSB 3/4 WCI  12
ELY            LGT SNOW  25  21  86 NE15G25   29.66F WCI  12
CLOQUET        LGT SNOW  30  28  93 NE3       29.58F
WHEATON        CLOUDY    30  28  93 NW20G25   29.71F FOG     WCI  18
BRAINERD       MIX PCPN  30  28  92 N12       29.62R FOG     WCI  20
HIBBING        MIX PCPN  26  23  88 N16G23    29.63F FOG     WCI  14
ALEXANDRIA     CLOUDY    32  29  88 N17       29.64S WCI  21
SAINT CLOUD    LGT RAIN  35  33  92 N9        29.58R
MINNEAPOLIS    LGT RAIN  36  33  89 N15G21    29.51R
$$

  *****  WEATHER ACROSS SOUTH DAKOTA  *****

CITY           SKY/WX    TMP DP  RH WIND       PRES   REMARKS
SIOUX FALLS    CLOUDY    35  33  92 NW20      29.66R WCI  24
BROOKINGS      CLOUDY    31  29  92 NW17      29.65R WCI  19
WATERTOWN      LGT SNOW  30  27  88 N18       29.67S FOG     WCI  18
HURON          CLOUDY    32  28  85 N21G28    29.74F WCI  20
SISSETON         N/A     30  28  92 N21       29.70S WCI  17
ABERDEEN       LGT SNOW  30  26  85 N22G31    29.78S FOG     WCI  17
MITCHELL       CLOUDY    33  30  88 NW22G30   29.75S WCI  21
PIERRE         CLOUDY    33  26  75 N21G26    29.83R WCI  21
MOBRIDGE       CLOUDY    34  23  64 N15G26    29.80S WCI  24
RAPID CITY     CLOUDY    29  24  82 NW15      29.87S WCI  18
$$

  *****  SOME WEATHER IN NEARBY STATES *****

CITY           SKY/WX    TMP DP  RH WIND       PRES   REMARKS
GLASGOW MT     CLOUDY    35  24  64 SE13      29.88F
GREAT FALLS MT FAIR      38  34  85 E5        29.72S
CHEYENNE WY    FAIR      38  25  59 NW5       29.80S
SCOTTSBLUFF NE PTSUNNY   36  27  69 NW3       29.84F
OMAHA NE       CLOUDY    37  31  78 NW21      29.66S
DES MOINES IA  CLOUDY    43  40  89 NW16      29.55R
DAVENPORT IA   LGT RAIN  56  53  90 SW15      29.45R FOG
CHICAGO IL     CLOUDY    68  56  65 S21       29.42R
EAU CLAIRE WI  RAIN      40  39  97 N9        29.40S FOG
LA CROSSE WI   CLOUDY    57  56  96 NW6       29.35F FOG
$$

  *****  SOME NATIONAL WEATHER *****

CITY           SKY/WX    TMP DP  RH WIND       PRES   REMARKS
LA GUARDIA NY  CLOUDY    56  53  90 NE14      29.75F FOG
RALEIGH NC     PTSUNNY   67  58  72 W9        29.84R
ATLANTA GA     FAIR      67  57  70 NW10      29.87R
NEW ORLEANS LA PTSUNNY   74  66  76 SE13      29.74R
OKLAHOMA CITY  LGT RAIN  45  43  93 N25G35    29.60R
ALBUQUERQUE NM FAIR      45  29  53 N14       29.92R
SALT LAKE CITY PTSUNNY   45  37  73 E7        29.91S
LOS ANGELES CA MOCLDY    59  54  83 E6        29.89R
BOISE ID       LGT RAIN  45  42  89 SE10      29.84F
SEATTLE WA     CLOUDY    48  46  93 SW14      29.79S
$$

*** WEATHER ACROSS MANITOBA...SASKATCHEWAN AND ONTARIO ***
                ***ONTARIO***

CITY           SKY/WX    TMP DP  RH WIND       PRES   REMARKS
GERALDTON      LGT SNOW  14  10  85 NE12G26   29.96S VSB 1   WCI   0
THUNDER BAY    FRZ RAIN  28  25  86 NE10      29.75F WCI  19
SIOUX LOOKOUT  CLOUDY    21  14  73 VRB8G20   29.94F WCI  12
TORONTO        CLOUDY    52  48  87 E8        29.81S
BIG TROUT LK   SUNNY     12   1  62 E7        30.30F WCI   2
PICKLE LAKE    CLOUDY    12   5  73 E13G20    30.10S WCI  -3
DRYDEN         CLOUDY    23  19  86 NE21G30   29.88S WCI   8
KENORA         CLOUDY    23  18  80 NE20G29   29.89F WCI   8
$$
                *** MANITOBA***

CITY           SKY/WX    TMP DP  RH WIND       PRES   REMARKS
BRANDON        PTSUNNY   30  18  59 NE20      29.99R WCI  18
DAUPHIN        SUNNY     30  21  69 NE9       30.08F WCI  22
ISLAND LAKE    MOSUNNY   23   9  54 E5        30.24F WCI  17
PILOT MOUND      N/A     30  21  69 NE16G25     N/A  WCI  19
THE PAS        MOSUNNY   27  10  50 E6        30.16F WCI  20
THOMPSON       SUNNY     16   0  48 S3        30.26S
WINNIPEG       PTSUNNY   28  19  69 NE24      29.97R WCI  14
LYNN LAKE      SUNNY     23   3  42 S7        30.16S WCI  15
CHURCHILL      MOSUNNY   14   0  52 SW16G22   30.22F WCI  -2
GILLAM         SUNNY     16  -2  45 VRB2      30.31F
$$
                ***SASKATCHEWAN***

CITY           SKY/WX    TMP DP  RH WIND       PRES   REMARKS
ESTEVAN        MOSUNNY   30  19  64 E10       29.97S WCI  21
KINDERSLEY     CLOUDY    32  28  86 SE15      29.80F WCI  22
LLOYDMINSTER   LGT SNOW  28  28 100 E15       29.86F WCI  17
PRINCE ALBERT  PTSUNNY   30  19  64 SE8       30.03S WCI  23
REGINA         CLOUDY    28  18  64 SE13      29.98S WCI  18
YORKTON        SUNNY     28  18  64 E7        30.04F WCI  21
N. BATTLEFORD  FLURRIES  30  30 100 E18       29.92F WCI  18
LA RONGE       MOSUNNY   28  10  47 SE6       30.07S WCI  22
SASKATOON      CLOUDY    30  28  93 SE13      29.97S WCI  20
SWIFT CURRENT  CLOUDY    32  28  86 SE17G23   29.82S WCI  21
$$
NOTE: THESE ARE AUTOMATED STATIONS WITH LIMITED QUALITY CONTROL
      "FAIR" INDICATES FEW OR NO CLOUDS BELOW 12,000 FEET WITH NO
      SIGNIFICANT WEATHER AND/OR OBSTRUCTIONS TO VISIBILITY.
      SKY/WX - SKY CONDITION AND SIGNIFICANT WEATHER.
      TMP - AIR TEMPERATURE.    DP   - DEWPOINT TEMPERATURE.
      RH  - RELATIVE HUMIDITY.  PRES - PRESSURE.
      HX  - HEAT INDEX.         WCI  - WIND CHILL INDEX.
$



USA.gov is the U.S. government's official web portal to all federal, state and local government web resources and services.